Location: Bijele Vode
(45.2833°N, 16.2000°E)
Time: 14:02:42
(UTC+00:00)

Meteor 2-9 Rocket - Pass Details

Date: 18 September 2020
Orbit: 791 x 896 km, 81.3° (Epoch: 29 October)

Event Time Altitude Azimuth Distance (km) Brightness Sun altitude
Rises 17:49:56 0° 188° (S) 3,497 7.4 -9.6°
Reaches altitude 10° 17:52:23 10° 189° (S) 2,560 6.7 -10.0°
Maximum altitude 17:58:15 90° 235° (SW) 897 4.3 -11.0°
Drops below altitude 10° 18:04:05 10° 11° (N) 2,545 6.7 -12.0°
Sets 18:06:31 0° 11° (NNE) 3,476 7.5 -12.4°
